Location: Complexul Astronomic Baia Mare
(47.6577°N, 23.5639°E)
Time: 13:34:53
(UTC+03:00)

ISS - Pass Details

Date: 25 May 2017
Orbit: 401 x 408 km, 51.6° (Epoch: 24 June)

Event Time Altitude Azimuth Distance (km) Brightness Sun altitude
Rises 03:39:34 0° 293° (WNW) 2,335 -0.1 -14.8°
Reaches altitude 10° 03:41:40 10° 292° (WNW) 1,471 -1.1 -14.6°
Maximum altitude 03:44:57 74° 208° (SSW) 426 -4.0 -14.3°
Drops below altitude 10° 03:48:13 10° 122° (ESE) 1,459 -1.0 -14.0°
Sets 03:50:17 0° 121° (ESE) 2,314 0.1 -13.8°
